Volver al catálogo

COSMOS 2251 DEB

LostVLEO
NORAD 39547·DEBRIS·🇷🇺 Russia

Lanzado Jun 16, 1993 desde Plesetsk Cosmodrome

Loading…

Próximos Pases (próximas 24 horas)

TLE

ObsoletoSource: Space-Track

Época: Aug 7, 2026, 18:32 UTC

1 39547U 93036BUD 26219.77280620  .00117161  00000-0  23994-2 0  9997
2 39547  73.9898 237.5715 0015372 272.1406  87.8044 15.45456124676449

Sigue COSMOS 2251 DEB en tiempo real con AllMySat

Download on the App Store